Theta_e
309 310 310 310 310 310 309 309 309 309 309 309 308 308 308 308 307 307 307 308 308 309 311 312 312 312 311 311 312 311 312 313 311 309 308 307 299 294 290 289 290 290 290
307 307 307 307 308 308 308 307 307 307 308 309 309 308 308 307 306 306 306 305 306 306 307 307 306 305 305 306 308 310 311 311 309 307 307 306 303 295 289 289 289 288 289
306 306 306 306 306 306 306 306 306 306 307 307 307 307 307 307 306 305 304 303 303 303 303 302 301 300 300 300 301 303 305 306 306 307 304 303 301 294 289 288 287 287 288
305 305 304 304 304 304 304 304 305 305 306 306 306 306 306 305 305 304 303 302 301 300 299 298 297 296 297 297 297 297 297 297 296 298 297 297 297 291 287 287 286 286 286
303 303 303 302 302 302 302 302 302 302 302 303 303 304 305 305 304 302 301 300 298 297 296 295 295 295 294 294 294 294 293 292 291 292 292 292 291 288 287 286 285 285 285
302 302 301 301 301 301 300 300 301 301 301 301 301 302 303 304 304 303 301 299 296 294 294 294 293 293 293 292 292 291 290 290 290 289 289 290 290 287 285 285 285 285 284
301 301 301 300 300 300 300 300 299 300 300 300 300 300 301 302 302 300 298 296 296 294 292 291 291 291 291 290 290 289 288 287 287 287 288 288 288 287 286 285 284 285 285
300 299 299 299 299 298 298 298 298 298 298 299 299 299 299 300 300 299 296 293 292 293 294 293 290 289 288 288 287 287 286 286 285 285 285 286 287 286 284 284 284 284 284
298 298 298 298 298 298 298 298 297 297 297 298 298 298 298 298 297 296 295 293 291 290 289 291 293 290 288 286 286 285 285 284 284 284 284 284 285 285 284 283 283 282 282
297 297 297 297 297 297 297 297 297 297 297 297 297 297 297 297 296 294 293 292 291 289 288 288 288 288 288 287 286 284 282 281 281 282 286 284 282 282 282 282 281 281 281
296 296 296 295 295 295 295 295 295 295 295 295 295 295 294 294 294 292 291 290 289 287 287 288 287 287 286 284 284 283 282 281 284 284 282 280 280 280 280 280 280 280 279
294 294 293 293 293 293 292 292 292 292 292 292 292 292 292 291 290 290 289 288 286 287 287 287 286 286 286 285 283 283 281 281 281 282 282 281 280 279 278 278 279 278 278
291 291 291 290 290 290 290 290 290 289 289 288 288 287 287 286 285 285 286 286 286 286 286 285 285 285 283 282 280 281 278 281 281 280 277 276 278 278 277 276 276 277 277
289 288 288 288 288 288 288 287 287 286 285 284 284 283 282 282 282 282 282 284 284 284 285 284 283 283 281 280 279 278 278 279 278 276 276 277 275 274 275 278 277 277 275
287 287 287 287 286 286 285 284 284 283 282 281 280 280 281 281 281 281 281 282 283 283 283 283 282 280 279 279 278 277 277 276 275 275 274 274 273 275 277 277 276 273 273
285 285 285 285 285 284 283 283 282 281 281 280 279 279 280 281 281 281 281 281 282 283 282 281 280 279 279 278 277 277 276 275 272 271 272 272 275 276 275 274 272 271 271
284 284 284 283 282 281 281 280 281 282 280 280 280 278 279 279 280 281 280 281 281 282 280 280 280 279 278 277 276 276 276 274 273 273 274 274 274 274 273 271 270 270 270
283 282 282 281 281 280 280 279 279 279 279 279 278 278 278 279 281 280 279 280 281 279 280 279 279 278 277 276 275 275 274 274 273 273 273 273 273 272 271 270 270 269 269
282 281 280 280 280 279 279 278 277 277 277 276 277 277 277 277 277 278 278 279 280 279 279 278 277 276 276 274 274 274 273 273 273 272 272 272 271 270 270 269 269 269 268
280 280 279 279 278 278 277 276 276 276 275 275 275 275 275 276 276 276 277 278 279 279 278 278 276 275 274 273 273 273 273 272 272 272 271 271 270 269 269 268 268 268 268
279 279 278 277 277 276 275 275 275 275 274 274 274 274 273 275 275 275 276 276 277 278 277 276 275 275 274 273 273 272 272 271 271 271 271 270 269 268 268 268 268 268 268
278 277 277 276 276 275 275 274 274 274 273 273 273 273 273 273 274 274 274 275 275 275 275 275 274 273 273 273 272 272 271 271 271 271 270 269 268 268 267 267 267 267 267
277 277 276 275 275 274 274 274 273 273 273 272 272 272 273 273 273 273 273 273 273 273 273 273 273 272 272 272 271 271 271 271 270 268 268 268 268 267 267 267 267 266 266
277 276 275 274 274 273 273 273 272 271 271 271 272 271 271 272 272 272 272 272 272 272 271 271 271 271 271 271 271 271 270 268 268 268 267 267 267 267 267 266 266 266 265
276 275 275 274 274 273 272 272 271 270 269 269 269 268 269 270 271 271 271 271 271 271 271 271 270 270 270 270 268 267 267 267 267 267 267 266 266 266 266 266 266 265 265
276 275 274 274 273 272 272 271 271 270 270 269 269 268 268 268 268 268 268 268 268 268 268 268 267 267 267 267 267 267 267 266 266 266 266 266 266 266 266 265 265 265 265
Wind_Speed
15 16 17 18 20 22 23 23 25 26 26 27 28 30 31 33 33 33 33 32 33 33 33 34 34 33 32 30 29 27 28 26 26 22 27 29 26 26 27 27 25 24 21
17 18 19 20 21 23 24 26 28 29 30 32 33 33 34 35 35 36 36 35 35 34 33 33 31 31 29 29 28 28 28 28 30 30 27 29 31 31 30 29 27 24 23
17 18 19 20 22 23 25 27 29 31 32 34 36 37 37 38 38 37 37 36 36 35 34 34 32 32 31 31 30 30 29 30 30 33 31 29 31 33 32 31 27 25 23
13 15 15 15 17 18 20 22 25 27 30 32 34 37 38 39 39 39 39 38 37 36 35 34 33 34 33 33 32 31 31 29 29 31 30 31 32 34 34 32 30 27 24
15 16 17 18 19 20 21 23 24 26 27 28 30 32 35 38 40 39 39 38 38 37 37 36 35 35 35 34 33 32 29 29 29 32 32 33 36 37 40 36 31 28 26
22 23 25 27 27 27 28 28 29 30 31 32 33 34 34 34 36 38 39 38 38 37 38 38 37 37 35 34 32 31 28 29 30 31 32 34 36 35 38 34 32 29 23
27 29 30 32 34 34 35 35 35 35 35 36 36 36 37 37 35 35 35 35 37 38 36 36 35 35 34 31 31 32 29 28 28 29 31 31 31 34 36 34 31 29 27
30 32 33 35 36 36 37 37 37 37 37 37 37 37 38 39 37 37 34 34 36 37 37 36 36 33 30 29 28 26 26 28 28 26 27 28 27 29 30 28 28 27 23
31 33 35 36 38 39 40 41 40 41 41 41 40 40 40 40 38 36 35 35 36 36 35 35 35 35 30 28 27 24 23 24 26 27 26 25 25 27 25 24 25 23 21
33 35 37 38 40 41 41 42 42 42 43 43 43 41 41 41 39 35 36 34 39 37 36 34 33 33 32 32 28 24 21 20 18 18 24 25 23 22 22 22 20 20 18
32 32 31 31 32 33 35 35 37 38 39 41 42 42 42 40 39 35 32 32 38 38 37 36 34 31 29 27 32 26 26 22 21 22 22 20 19 19 19 20 20 18 16
25 26 27 27 28 30 32 32 34 35 37 39 40 40 40 39 39 36 29 29 34 41 40 36 33 29 29 29 31 24 26 26 25 27 26 23 22 21 18 17 16 16 14
24 24 25 26 26 27 29 30 31 31 33 35 36 38 38 36 36 34 26 26 30 43 44 31 24 23 22 22 26 21 25 28 27 25 24 23 20 20 20 18 16 13 12
24 24 26 27 28 28 28 28 27 27 29 30 31 33 32 30 31 32 29 23 23 37 38 27 22 19 24 28 26 27 28 24 24 26 26 23 22 21 19 16 15 14 13
24 26 27 28 28 29 28 28 28 26 24 26 28 29 31 31 29 26 26 23 21 36 33 26 18 24 32 32 29 27 25 21 23 22 23 22 21 20 18 18 15 13 14
24 25 26 28 29 30 31 33 28 27 25 23 24 24 27 29 28 27 26 23 20 32 34 27 24 31 35 35 30 24 19 19 20 21 20 20 19 20 17 15 14 15 12
24 25 26 27 28 29 30 32 35 33 29 25 22 21 21 27 24 26 25 20 20 27 28 26 27 30 34 33 29 23 21 22 22 22 22 21 19 18 14 13 14 13 11
24 25 26 27 27 28 28 29 30 31 34 33 24 19 18 15 14 19 21 17 18 28 23 24 24 26 30 30 26 22 21 22 21 22 21 20 17 13 13 13 13 11 11
24 24 26 27 27 27 27 27 26 26 27 27 25 17 14 16 17 21 23 21 29 26 19 17 17 20 23 23 23 22 21 20 19 20 19 17 14 13 14 14 13 11 11
24 25 25 26 26 26 25 25 24 24 24 23 21 19 18 17 19 19 17 13 23 20 16 15 14 16 18 19 20 20 18 18 18 18 17 15 13 14 14 14 12 11 10
25 25 25 25 25 24 24 24 24 23 22 21 19 15 14 18 19 16 12 8 19 20 18 14 9 8 10 14 16 17 17 17 17 17 16 13 13 15 14 13 12 11 11
24 25 25 25 25 24 24 23 23 22 21 21 19 16 15 16 14 11 9 5 6 15 16 13 11 9 9 11 13 15 16 17 17 14 12 14 16 15 14 14 12 11 11
24 24 24 24 24 24 24 23 22 21 21 20 20 18 16 16 16 16 15 13 10 8 12 15 14 12 12 12 13 14 15 14 11 13 16 16 16 15 14 14 13 12 12
23 23 24 24 24 24 24 24 23 22 21 21 20 19 18 18 18 19 19 17 15 14 15 16 17 17 16 15 15 14 13 14 15 16 16 16 16 16 15 14 13 13 12
23 23 24 24 25 25 25 24 24 23 23 22 21 20 19 18 17 17 17 16 16 16 15 15 16 16 16 15 14 15 16 16 16 16 16 16 15 15 15 14 13 13 14
23 24 25 25 26 25 25 26 25 25 24 23 22 20 19 18 17 16 16 15 15 16 16 16 16 16 16 16 16 16 16 16 16 16 16 16 16 16 14 13 14 15 15
Wind_Direction
301 302 300 300 302 302 301 302 303 302 300 297 295 294 292 292 292 290 288 287 285 284 280 279 275 273 272 267 262 256 253 248 240 236 233 231 222 215 210 207 209 212 211
306 304 307 308 305 302 299 299 298 296 295 292 290 290 290 290 290 289 288 287 286 283 280 277 274 271 268 266 263 257 250 244 239 238 237 227 221 215 213 211 209 210 213
302 307 311 312 307 304 304 303 301 299 297 295 293 291 290 290 288 287 285 284 283 281 278 274 271 267 264 262 259 255 251 245 234 238 234 226 219 213 208 208 208 210 212
327 326 322 318 315 314 312 307 304 302 300 298 295 294 292 290 288 286 284 283 282 280 276 272 269 267 266 263 259 255 251 244 233 232 230 222 218 210 209 209 204 206 208
323 321 318 313 310 309 307 304 304 303 302 301 301 299 296 293 291 288 287 285 284 281 278 274 271 268 266 263 260 257 252 243 230 225 222 217 215 208 207 202 203 202 202
319 318 316 314 314 314 312 311 309 306 304 302 301 299 296 294 293 291 289 287 284 281 279 277 274 272 269 265 261 256 249 243 235 227 223 222 219 211 206 204 205 200 198
311 312 312 311 310 311 311 311 311 310 308 305 304 302 300 296 290 286 286 284 281 280 278 278 275 272 267 263 257 249 243 241 233 235 230 225 218 216 209 204 204 206 207
306 307 306 305 306 307 308 309 309 308 307 306 304 302 300 298 294 291 285 282 279 276 277 277 275 272 267 260 255 251 247 238 235 230 223 223 220 216 209 207 206 207 205
303 303 305 307 308 309 309 310 310 308 307 306 304 302 299 298 296 291 287 281 278 274 271 268 268 265 262 259 256 248 245 235 230 228 228 222 218 214 210 210 210 205 199
304 305 307 307 306 306 307 307 307 306 305 305 304 303 300 298 296 293 288 278 273 272 269 264 262 257 255 253 247 241 238 229 215 209 230 232 222 212 210 210 212 214 212
303 304 305 307 307 307 308 308 308 307 306 305 304 304 304 303 300 298 291 279 270 265 264 263 261 259 253 246 245 238 232 229 245 240 226 211 206 207 207 208 209 208 209
307 308 309 309 311 311 310 311 312 312 311 310 309 308 307 306 304 302 298 281 262 262 263 264 266 262 258 246 244 239 238 232 218 224 229 222 218 211 205 209 211 210 213
308 310 312 313 313 314 314 314 315 314 313 313 312 312 311 310 308 305 304 289 255 254 255 262 270 263 246 220 216 231 217 232 233 221 214 210 214 217 208 203 200 204 215
315 318 320 321 321 320 319 318 317 317 317 314 312 309 308 307 308 306 309 298 265 251 252 249 256 249 210 204 207 211 225 234 221 212 211 215 209 201 194 202 213 218 220
324 326 326 325 324 322 322 322 322 320 317 312 307 304 303 303 301 301 301 295 280 245 246 241 230 202 203 206 214 218 220 227 213 211 212 202 199 201 206 211 215 217 222
325 325 325 326 326 325 324 322 322 321 320 311 303 300 299 289 296 292 302 286 276 251 242 229 209 206 211 214 219 222 227 212 206 209 204 201 208 215 214 209 207 214 219
324 325 325 325 324 323 324 322 323 324 324 323 315 311 304 303 291 286 298 285 289 235 227 221 216 216 215 217 222 225 227 217 210 214 219 220 217 211 203 209 214 213 216
321 322 323 323 322 322 322 321 323 324 323 325 327 319 316 320 308 295 302 283 274 197 222 222 222 225 224 223 221 227 225 223 220 221 222 219 214 208 209 216 219 219 225
320 321 320 320 321 322 322 322 321 322 320 319 321 321 310 308 302 295 296 293 201 205 223 235 238 237 235 231 229 232 234 230 224 224 220 215 210 212 221 222 222 222 227
321 321 320 320 321 322 321 320 320 321 319 319 320 322 325 321 319 313 308 287 220 225 240 249 266 259 244 236 236 239 234 228 225 221 217 215 215 223 227 229 225 226 230
319 320 320 320 320 320 319 319 321 320 318 317 318 318 325 319 321 319 314 268 218 222 231 240 246 243 241 240 238 233 230 224 220 218 217 220 226 230 230 233 234 236 238
319 320 320 319 320 320 318 318 320 319 317 315 313 308 300 308 315 320 324 316 253 234 232 233 231 244 256 253 241 232 226 222 220 219 223 228 230 232 234 238 241 244 249
319 318 317 318 318 317 317 317 317 317 316 314 310 306 296 288 293 296 297 297 290 272 242 237 246 256 261 259 246 234 228 225 227 230 230 231 233 234 237 241 244 247 250
319 319 318 318 317 317 316 316 315 314 314 313 310 306 301 294 286 281 280 281 279 270 261 258 260 263 263 257 247 242 242 238 235 233 232 232 234 235 237 240 242 247 254
318 317 316 316 315 314 313 313 312 311 311 310 307 304 301 297 292 286 282 277 274 270 266 264 262 260 257 258 253 245 239 235 234 232 232 233 236 238 239 241 246 253 255
316 315 314 313 312 311 311 310 310 310 307 304 303 303 301 296 291 287 284 280 275 271 268 265 262 259 256 252 248 243 240 239 238 236 235 235 238 242 245 248 250 253 256